Namest Nad Oslav, Czech Republic

4:32 PM CEST on September 18, 2019 (GMT +0200)
Namest

Weather History for LKNA - August, 2019

Change the Weather History Date:

Monday, August 19, 2019

  Actual Average Record
Temperature  
Mean Temperature 72 °F -  
Max Temperature 80 °F - - ()
Min Temperature 63 °F - - ()
Cooling Degree Days 6    
Growing Degree Days 22 (Base 50)    
Moisture  
Dew Point 58 °F    
Average Humidity 56    
Maximum Humidity 88    
Minimum Humidity 30    
Precipitation  
Precipitation 0.00 in - - ()
Sea Level Pressure  
Sea Level Pressure 30.00 in    
Wind  
Wind Speed 7 mph ()    
Max Wind Speed 17 mph    
Max Gust Speed -    
Visibility 13.2 miles    
Events Rain    
T = Trace of Precipitation, MM = Missing Value Source: Averaged Metar Reports

Daily Weather History Graph

Daily Weather History Graph

Search for Another Location

Airport or City:

Astronomy

Aug. 19, 2019 Rise Set
Actual Time 5:52 AM CEST 8:04 PM CEST
Civil Twilight 5:17 AM CEST 8:39 PM CEST
Nautical Twilight 4:34 AM CEST 9:22 PM CEST
Astronomical Twilight 3:44 AM CEST 10:11 PM CEST
Moon 10:00 PM CEST (8/19) 9:32 AM CEST (8/19)
Length of Visible Light 15h 21m
Length of Day
14h 12m
Waning Gibbous, 87% of the Moon is Illuminated
Aug 19
Waning Gibbous
Aug 23
Last Quarter
Aug 30
New
Sep 6
First Quarter
Sep 14
Full

Hourly Weather History & Observations

Time (CEST) Temp. Dew Point Humidity Pressure Visibility Wind Dir Wind Speed Gust Speed Precip Events Conditions
12:00 AM 71 °F 58 °F 55% 29.85 in 19 mi ESE 6.7 mph - -  
1:00 AM 70 °F 58 °F 58% 29.85 in 19 mi ESE 4.5 mph - -  
1:00 AM 69.8 °F 59.0 °F 68% 29.89 in - East 3.5 mph - N/A   Clear
2:00 AM 69 °F 59 °F 63% 29.86 in 16 mi ENE 4.5 mph - -  
2:00 AM 69.8 °F 60.8 °F 73% 29.89 in - ENE 3.5 mph - N/A   Clear
4:00 AM 64.4 °F 60.8 °F 88% 29.92 in - North 6.9 mph - N/A   Clear
5:00 AM 64 °F 60 °F 81% 29.91 in 16 mi NNE 4.5 mph - -   Mostly Cloudy
5:00 AM 64.4 °F 60.8 °F 88% 29.95 in - NNE 5.8 mph - N/A   Clear
7:00 AM 65 °F 60 °F 79% 29.96 in 12 mi WNW 4.5 mph - -   Scattered Clouds
7:00 AM 64.4 °F 60.8 °F 88% 29.98 in - WNW 6.9 mph - N/A   Clear
8:00 AM 68 °F 59 °F 67% 29.98 in 12 mi WNW 13.4 mph - -   Scattered Clouds
9:00 AM 72 °F 58 °F 53% 29.97 in 12 mi NW 15.7 mph - -   Scattered Clouds
9:00 AM 71.6 °F 59.0 °F 64% 30.01 in - NW 16.1 mph - N/A   Clear
10:00 AM 75.2 °F 57.2 °F 53% 30.04 in - NW 17.3 mph - N/A   Clear
11:00 AM 75.2 °F 57.2 °F 53% 30.04 in 6.2 mi NNW 10.4 mph - N/A   Scattered Clouds
12:00 PM 78 °F 56 °F 36% 29.98 in 31 mi NW 4.5 mph - -   Scattered Clouds
12:00 PM 78.8 °F 55.4 °F 44% 30.04 in - NW 5.8 mph - N/A   Clear
1:00 PM 76 °F 56 °F 39% 30.00 in 31 mi WNW 15.7 mph - -   Scattered Clouds
1:00 PM 77.0 °F 55.4 °F 47% 30.06 in - WNW 15.0 mph - N/A   Clear
2:00 PM 78 °F 54 °F 32% 30.00 in 31 mi WNW 11.2 mph - -   Scattered Clouds
2:00 PM 78.8 °F 55.4 °F 44% 30.06 in - NW 10.4 mph - N/A   Clear
3:00 PM 79 °F 53 °F 30% 29.99 in 31 mi West 8.9 mph - -   Scattered Clouds
3:00 PM 78.8 °F 55.4 °F 44% 30.06 in - West 8.1 mph - N/A   Clear
4:00 PM 78 °F 56 °F 35% 30.01 in 31 mi NW 8.9 mph - -   Scattered Clouds
4:00 PM 78.8 °F 55.4 °F 44% 30.06 in - NW 10.4 mph - N/A   Clear
5:00 PM 76 °F 56 °F 40% 30.02 in 31 mi NW 15.7 mph - -   Scattered Clouds
5:00 PM 77.0 °F 57.2 °F 50% 30.06 in - NW 12.7 mph - N/A   Clear
6:00 PM 77.0 °F 59.0 °F 54% 30.06 in - NW 8.1 mph - N/A   Clear
7:00 PM 75 °F 58 °F 45% 30.02 in 31 mi NNW 6.7 mph - -   Mostly Cloudy
8:00 PM 74 °F 58 °F 46% 30.04 in 31 mi NNW 4.5 mph - -   Partly Cloudy
9:00 PM 72 °F 58 °F 51% 30.06 in 31 mi WNW 2.2 mph - - Rain Light Rain
9:00 PM 73.4 °F 59.0 °F 61% 30.12 in 6.2 mi Variable 2.3 mph - N/A Rain Light Rain
10:00 PM 72 °F 57 °F 50% 30.07 in 31 mi North 2.2 mph - - Rain Light Rain
10:00 PM 71.6 °F 59.0 °F 64% 30.12 in - Variable 2.3 mph - N/A   Clear
11:00 PM 70 °F 58 °F 57% 30.09 in 31 mi East 4.5 mph - -   Partly Cloudy